Station PTBM6 - 8741003 - Petit Bois Island, Port of Pascagoula, MS Image indicating link to RSS feed of recent meteorological observations for station PTBM6


Conditions at PTBM6 as of
(7:30 pm CDT on 05/17/2024)
0030 GMT on 05/18/2024:
     

Click on the graph icon in the table below to see a time series plot of the last five days of that observation.

5-day plot - Wind Direction Wind Direction (WDIR): S ( 180 deg true )
5-day plot - Wind Speed Wind Speed (WSPD): 12.0 kts
5-day plot - Wind Gust Wind Gust (GST): 14.0 kts
5-day plot - Atmospheric Pressure Atmospheric Pressure (PRES):29.77 in
5-day plot - Air Temperature Air Temperature (ATMP): 78.4 °F
5-day plot - Wind Speed at 10 Meters Wind Speed at 10 meters (WSPD10M): 13.6 kts
5-day plot - Wind Speed at 20 Meters Wind Speed at 20 meters (WSPD20M): 13.6 kts
5-day plot -  Wind Speed, Wind Gust and Atmospheric Pressure Combined plot of Wind Speed, Gust, and Air Pressure
NOS Water Level Observation Network Water Level
Previous observations
TIME
(CDT)
5-day plot - Wind Direction
WDIR
 
5-day plot - Wind Speed
WSPD
kts
5-day plot - Wind Gust
GST
kts
5-day plot - Wave Height
WVHT
ft
5-day plot - Dominant Wave Period
DPD
sec
5-day plot - Average Wave Period
APD
sec
5-day plot - Mean Wave Direction
MWD
 
5-day plot - Atmospheric Pressure
PRES
in
5-day plot - Pressure Tendency
PTDY
in
5-day plot - Air Temperature
ATMP
°F
5-day plot - Water Temperature
WTMP
°F
5-day plot - Dew Point
DEWP
°F
5-day plot - Salinity
SAL
psu
5-day plot - Visibility
VIS
nmi
5-day plot - Tide (above MLLW)
TIDE
ft
2024-05-17 07:24 pm S 12.0 14.0----29.77- 78.4-----
2024-05-17 07:18 pm S 9.9 12.0----29.78- 78.6-----
2024-05-17 07:12 pm S 11.1 13.0----29.78- 78.6-----
2024-05-17 07:06 pm S 9.9 12.0----29.78- 78.6-----
2024-05-17 07:00 pmSSW 9.9 11.1----29.79+0.03 78.6-----
2024-05-17 06:54 pmSSW 11.1 13.0----29.79- 78.6-----
2024-05-17 06:48 pmSSW 11.1 13.0----29.79- 78.6-----
2024-05-17 06:42 pmSSW 11.1 14.0----29.78- 78.8-----
2024-05-17 06:36 pmSSW 11.1 13.0----29.78- 78.8-----
2024-05-17 06:30 pm S 12.0 15.0----29.78- 78.8-----
2024-05-17 06:24 pm S 12.0 15.0----29.77- 78.8-----
2024-05-17 06:18 pm S 13.0 15.9----29.77- 78.8-----
2024-05-17 06:12 pm S 12.0 15.0----29.77- 78.8-----
2024-05-17 06:06 pm S 13.0 15.0----29.77- 79.0-----
2024-05-17 06:00 pm S 14.0 17.1----29.76-0.01 79.2-----
2024-05-17 05:54 pm S 13.0 15.9----29.77- 79.2-----
2024-05-17 05:48 pm S 13.0 15.0----29.77- 79.3-----
2024-05-17 05:42 pmSSW 14.0 17.1----29.78- 79.2-----
2024-05-17 05:36 pm S 15.0 17.1----29.77- 79.2-----
2024-05-17 05:30 pm-------29.77- 79.2-----
2024-05-17 05:24 pm-------29.77- 79.2-----
2024-05-17 05:18 pm S 14.0 15.9----29.77-------
2024-05-17 05:12 pmSSW 15.0 18.1----29.77-------
2024-05-17 05:06 pm S 15.0 17.1----29.76-------
2024-05-17 05:00 pm S 13.0 15.9----29.76-0.02 79.3-----
2024-05-17 04:54 pm S 13.0 15.0----29.77- 79.2-----
2024-05-17 04:48 pm S 15.0 18.1----29.76- 79.3-----
2024-05-17 04:42 pmSSW 14.0 17.1----29.76- 79.2-----
2024-05-17 04:36 pmSSW 14.0 17.1----29.76- 79.2-----
2024-05-17 04:30 pmSSW 15.0 19.0----29.76- 79.2-----
2024-05-17 04:24 pmSSW 15.0 18.1----29.76- 79.3-----
2024-05-17 04:18 pmSSW 15.0 19.0----29.76- 79.3-----
2024-05-17 04:12 pmSSW 15.9 18.1----29.76- 79.3-----
2024-05-17 04:06 pmSSW 15.9 19.0----29.76- 79.0-----
2024-05-17 04:00 pmSSW 15.9 18.1----29.76-0.04 79.0-----
2024-05-17 03:54 pmSSW 17.1 19.0----29.76- 79.2-----
2024-05-17 03:48 pm S 15.9 19.0----29.76- 79.3-----
2024-05-17 03:42 pm S 15.9 19.0----29.76- 79.2-----
2024-05-17 03:36 pmSSW 15.9 19.0----29.77- 79.0-----
2024-05-17 03:30 pmSSW 15.0 19.0----29.77- 79.3-----
2024-05-17 03:24 pm S 15.0 19.0----29.77- 79.7-----
2024-05-17 03:18 pm S 15.0 19.0----29.77- 79.2-----
2024-05-17 03:12 pm S 15.9 19.0----29.77- 79.3-----
2024-05-17 03:06 pm S 15.0 17.1----29.78- 79.2-----
2024-05-17 03:00 pm S 15.9 19.0----29.78-0.01 79.3-----
2024-05-17 02:54 pm S 15.0 18.1----29.78- 79.3-----
2024-05-17 02:48 pm S 15.0 18.1----29.78- 79.2-----
2024-05-17 02:42 pm S 15.0 18.1----29.78- 79.3-----
2024-05-17 02:36 pm S 15.0 19.0----29.78- 79.5-----
2024-05-17 02:30 pm S 15.0 18.1----29.77- 79.9-----
2024-05-17 02:24 pm S 15.9 20.0----29.77- 80.1-----
2024-05-17 02:18 pm S 17.1 20.0----29.77- 79.7-----
2024-05-17 02:12 pm S 15.9 20.0----29.77- 80.4-----
2024-05-17 02:06 pm S 14.0 17.1----29.78- 79.5-----
2024-05-17 02:00 pm S 11.1 12.0----29.79+0.01 80.2-----
2024-05-17 01:54 pmSSW 12.0 13.0----29.79- 79.5-----
2024-05-17 01:48 pmSSW 11.1 12.0------------
2024-05-17 01:42 pmSSW 14.0 17.1------------
2024-05-17 01:36 pm S 13.0 15.0------------
2024-05-17 01:30 pm S 13.0 15.0----29.79- 79.7-----
2024-05-17 01:24 pm S 13.0 15.9----29.79- 79.9-----
2024-05-17 01:18 pm S 12.0 15.0----29.79- 79.7-----
2024-05-17 01:12 pm S 12.0 15.0----29.80- 79.5-----
2024-05-17 01:06 pm S 12.0 15.0----29.80- 79.7-----
2024-05-17 01:00 pm S 12.0 15.0----29.80+0.00 79.5-----
2024-05-17 12:54 pm S 13.0 15.0----29.80- 79.5-----
2024-05-17 12:48 pm S 12.0 14.0----29.80-------
2024-05-17 12:42 pm S 12.0 13.0----29.80-------
2024-05-17 12:36 pmSSW 11.1 13.0----29.80-------
2024-05-17 12:30 pm S 9.9 12.0----29.79- 79.5-----
2024-05-17 12:24 pm S 11.1 13.0----29.79- 79.9-----
2024-05-17 12:18 pm S 11.1 13.0----29.79- 79.9-----
2024-05-17 12:12 pm S 12.0 14.0----29.79- 79.5-----
2024-05-17 12:06 pm S 11.1 13.0----29.79- 79.5-----
2024-05-17 12:00 pm S 12.0 15.0----29.79+0.00 79.3-----
2024-05-17 11:54 am S 12.0 14.0----29.79- 79.2-----
2024-05-17 11:48 am S 12.0 15.0----29.79- 79.7-----
2024-05-17 11:42 am S 12.0 15.0----29.79- 79.9-----
2024-05-17 11:36 am S 12.0 14.0----29.79- 79.9-----
2024-05-17 11:30 am S 12.0 15.0----29.79- 79.9-----
2024-05-17 11:24 am S 13.0 15.0----29.79- 79.7-----
2024-05-17 11:18 am S 13.0 15.9----29.78- 79.5-----
2024-05-17 11:12 am S 13.0 17.1----29.79- 79.5-----
2024-05-17 11:06 am S 15.0 18.1----29.78- 79.2-----
2024-05-17 11:00 am S 15.0 18.1----29.78+0.02 79.2-----
2024-05-17 10:54 amSSE 15.9 20.0----29.77- 79.0-----
2024-05-17 10:48 amSSE 15.0 20.0----29.78- 79.0-----
2024-05-17 10:42 amSSE 15.0 19.0----29.78- 78.6-----
2024-05-17 10:36 amSSE 15.0 19.0----29.78- 78.4-----
2024-05-17 10:30 amSSE 14.0 18.1----29.78- 78.1-----
2024-05-17 10:24 amSSE 15.0 19.0----29.79- 77.7-----
2024-05-17 10:18 amSSE 14.0 19.0----29.79- 77.4-----
2024-05-17 10:12 amSSE 14.0 18.1----29.79- 77.5-----
2024-05-17 10:06 am SE 12.0 15.9----29.79- 76.8-----
2024-05-17 10:00 am SE 12.0 15.9----29.80+0.03 76.5-----
2024-05-17 09:54 am SE 11.1 15.9----29.80- 76.3-----
2024-05-17 09:48 am SE 12.0 15.0----29.79- 76.5-----
2024-05-17 09:42 am SE 13.0 18.1----29.79- 76.1-----
2024-05-17 09:36 am SE 14.0 18.1----29.79- 75.9-----
2024-05-17 09:30 am SE 13.0 18.1----29.79- 75.6-----
2024-05-17 09:24 am SE 13.0 17.1----29.79- 75.4-----
2024-05-17 09:18 amESE 11.1 14.0----29.79- 75.2-----
2024-05-17 09:12 am SE 14.0 18.1----29.78- 75.4-----
2024-05-17 09:06 am SE 13.0 18.1----29.78- 75.2-----
2024-05-17 09:00 am SE 12.0 15.9----29.79+0.02 75.0-----
2024-05-17 08:54 amESE 13.0 17.1----29.78- 75.0-----
2024-05-17 08:48 am SE 13.0 17.1----29.78- 74.8-----
2024-05-17 08:42 am SE 14.0 18.1----29.78- 74.8-----
2024-05-17 08:36 am SE 15.0 20.0----29.77- 74.8-----
2024-05-17 08:30 am SE 15.0 19.0----29.76- 74.7-----
2024-05-17 08:24 am SE 14.0 21.0----29.76- 74.7-----
2024-05-17 08:18 am SE 15.9 21.0----29.75- 74.8-----
2024-05-17 08:12 am SE 17.1 22.0----29.75- 75.0-----
2024-05-17 08:06 am SE 18.1 22.9----29.75- 75.0-----
2024-05-17 08:00 am SE 18.1 24.1----29.75+0.01 74.8-----
2024-05-17 07:54 am SE 18.1 24.1----29.75- 74.8-----
2024-05-17 07:48 am SE 18.1 24.1----29.75- 74.7-----
2024-05-17 07:42 am SE 19.0 24.1----29.75- 74.7-----
2024-05-17 07:36 am SE 19.0 24.1----29.75- 74.7-----
2024-05-17 07:30 am SE 17.1 22.0----29.75- 74.3-----
2024-05-17 07:24 am SE 17.1 22.0----29.76- 73.9-----
2024-05-17 07:18 am SE 15.0 20.0----29.77- 73.8-----
2024-05-17 07:12 am SE 15.0 22.0----29.77- 73.4-----
2024-05-17 07:06 am SE 17.1 22.9----29.77- 73.2-----
2024-05-17 07:00 am SE 15.9 22.0----29.77+0.01 73.2-----
2024-05-17 06:54 am SE 15.9 22.0----29.77- 73.0-----
2024-05-17 06:48 am SE 15.9 22.9----29.77- 73.2-----
2024-05-17 06:42 am SE 15.9 21.0----29.77- 73.0-----
2024-05-17 06:36 amESE 17.1 22.9----29.77- 73.0-----
2024-05-17 06:30 amESE 15.9 24.1----29.77- 72.7-----
2024-05-17 06:24 am SE 18.1 24.1----29.77- 73.0-----
2024-05-17 06:18 am SE 18.1 25.1----29.77- 73.2-----
2024-05-17 06:12 amESE 15.9 22.9----29.77- 73.0-----
2024-05-17 06:06 amESE 17.1 22.0----29.78- 73.0-----
2024-05-17 06:00 am SE 18.1 22.9----29.76+0.05 73.2-----
2024-05-17 05:54 am SE 18.1 25.1----29.76- 73.4-----
2024-05-17 05:48 am SE 17.1 24.1----29.75- 73.2-----
2024-05-17 05:42 am SE 18.1 22.9----29.74- 73.4-----
2024-05-17 05:36 am SE 15.9 22.9----29.74- 73.2-----
2024-05-17 05:30 am SE 15.0 21.0----29.75- 73.2-----
2024-05-17 05:24 am SE 17.1 22.0----29.74- 73.4-----
2024-05-17 05:18 am SE 15.0 20.0----29.74- 73.2-----
2024-05-17 05:12 am SE 15.0 21.0----29.74- 73.0-----
2024-05-17 05:06 am SE 15.0 21.0----29.74- 72.9-----
2024-05-17 05:00 am SE 14.0 20.0----29.74-0.15 72.3-----
2024-05-17 04:54 am SE 15.9 22.0----29.74- 72.1-----
2024-05-17 04:48 amESE 14.0 19.0----29.73- 71.8-----
2024-05-17 04:42 amESE 15.0 22.0----29.74- 71.2-----
2024-05-17 04:36 amESE 17.1 22.9----29.74- 71.4-----
2024-05-17 04:30 amESE 15.0 22.0----29.75- 71.4-----
2024-05-17 04:24 amESE 17.1 22.9----29.75- 71.4-----
2024-05-17 04:18 amESE 18.1 22.9----29.75- 71.6-----
2024-05-17 04:12 am E 15.9 21.0----29.76- 71.2-----
2024-05-17 04:06 am E 15.9 21.0----29.76- 71.4-----
2024-05-17 04:00 am E 19.0 22.9----29.76- 71.2-----
2024-05-17 03:54 am E 19.0 25.1----29.76- 71.2-----
2024-05-17 03:48 am E 22.0 26.0----29.76- 71.2-----
2024-05-17 03:42 am E 22.9 29.9----29.75- 71.2-----
2024-05-17 03:36 am E 22.0 26.0----29.77- 70.9-----
2024-05-17 03:30 am E 22.0 28.9----29.76- 71.1-----
2024-05-17 03:24 am E 26.0 33.0----29.75- 70.7-----
2024-05-17 03:18 am E 26.0 32.1----29.75- 70.7-----
2024-05-17 03:12 am E 24.1 32.1----29.74- 70.9-----
2024-05-17 03:06 am E 28.0 35.0----29.73- 70.3-----
2024-05-17 03:00 amENE 27.0 35.0----29.72-0.06 70.0-----
2024-05-17 02:54 amENE 32.1 38.1----29.70- 70.2-----
2024-05-17 02:48 am E 28.9 35.0----29.72- 70.2-----
2024-05-17 02:42 am E 27.0 35.0----29.74- 69.3-----
2024-05-17 02:36 am E 28.0 34.0----29.74- 67.5-----
2024-05-17 02:30 am E 22.9 29.9----29.78- 67.5-----
2024-05-17 02:24 am E 24.1 28.0----29.80- 66.2-----
2024-05-17 02:18 amENE 22.0 26.0----29.82- 66.6-----
2024-05-17 02:12 amENE 21.0 24.1----29.85- 66.4-----
2024-05-17 02:06 am NE 22.0 26.0----29.87- 65.7-----
2024-05-17 02:00 amNNE 21.0 26.0----29.89+0.11 66.4-----
2024-05-17 01:54 amNNE 20.0 26.0----29.90- 67.3-----
2024-05-17 01:48 am N 18.1 22.9----29.93- 66.9-----
2024-05-17 01:42 am N 26.0 35.0----29.93- 67.3-----
2024-05-17 01:36 am NW 38.1 47.0----29.95- 67.8-----
2024-05-17 01:30 am W 29.9 42.9----29.93- 69.4-----
2024-05-17 01:24 am W 15.9 22.9----29.89- 76.1-----
2024-05-17 01:18 amSSE 13.0 18.1----29.81- 75.6-----
2024-05-17 01:12 amESE 19.0 26.0----29.71- 75.2-----
2024-05-17 01:06 amESE 17.1 24.1----29.73- 75.2-----
2024-05-17 01:00 amESE 15.0 19.0------ 75.2-----
2024-05-17 12:54 amESE 12.0 19.0------ 75.4-----
2024-05-17 12:48 am SE 15.0 20.0----29.75- 75.7-----
2024-05-17 12:42 am SE 15.9 22.0----29.76- 76.3-----
2024-05-17 12:36 amSSE 12.0 15.0----29.80- 76.6-----
2024-05-17 12:30 am SE 11.1 15.0----29.78- 76.3-----
2024-05-17 12:24 am SE 13.0 17.1----29.78- 76.3-----
2024-05-17 12:18 am SE 11.1 15.0----29.77- 76.1-----
2024-05-17 12:12 am SE 12.0 15.9----29.79- 76.5-----
2024-05-17 12:06 am SE 11.1 15.0----29.78- 76.1-----
2024-05-17 12:00 am SE 11.1 15.9----29.77-0.01 75.9-----
2024-05-16 11:54 pm SE 12.0 15.0----29.80- 77.0-----
2024-05-16 11:48 pmSSE 11.1 14.0----29.81- 77.4-----
2024-05-16 11:42 pmSSE 12.0 17.1----29.80- 77.5-----
2024-05-16 11:36 pmSSE 15.0 19.0----29.79- 77.5-----
2024-05-16 11:30 pmSSE 15.0 20.0----29.79- 77.7-----
2024-05-16 11:24 pmSSE 15.9 20.0----29.78- 77.5-----
2024-05-16 11:18 pmSSE 15.0 19.0----29.78- 77.5-----
2024-05-16 11:12 pmSSE 14.0 18.1----29.78- 77.5-----
2024-05-16 11:06 pmSSE 13.0 17.1----29.79- 77.5-----
2024-05-16 11:00 pmSSE 14.0 18.1----29.78+0.03 77.4-----
2024-05-16 10:54 pmSSE 13.0 17.1----29.78- 77.4-----
2024-05-16 10:48 pmSSE 12.0 18.1----29.77- 77.4-----
2024-05-16 10:42 pm SE 14.0 18.1----29.77- 77.4-----
2024-05-16 10:36 pm SE 13.0 18.1----29.76- 77.2-----
2024-05-16 10:30 pm SE 14.0 19.0----29.76- 77.2-----
2024-05-16 10:24 pm SE 14.0 19.0----29.77- 77.2-----
2024-05-16 10:18 pm SE 13.0 17.1----29.78- 77.2-----
2024-05-16 10:12 pm SE 14.0 19.0----29.78- 77.2-----
2024-05-16 10:06 pm SE 13.0 18.1----29.78- 77.0-----
2024-05-16 10:00 pm SE 12.0 15.9----29.79+0.04 77.0-----
2024-05-16 09:54 pm SE 12.0 15.9----29.79- 77.0-----
2024-05-16 09:48 pm SE 11.1 15.9----29.79- 77.0-----
2024-05-16 09:42 pm SE 11.1 15.0----29.80- 77.0-----
2024-05-16 09:36 pm SE 11.1 15.0----29.80- 77.4-----
2024-05-16 09:30 pm SE 11.1 14.0----29.80- 77.2-----
2024-05-16 09:24 pmSSE 9.9 13.0----29.83- 77.5-----
2024-05-16 09:18 pmSSE 11.1 14.0----29.81-------
2024-05-16 09:12 pmSSE 14.0 17.1----29.80- 77.2-----
2024-05-16 09:06 pmSSE 14.0 17.1----29.79- 77.5-----
2024-05-16 09:00 pmSSE 13.0 18.1----29.79+0.00 77.5-----
2024-05-16 08:54 pmSSE 11.1 17.1----29.78- 77.5-----
2024-05-16 08:48 pm SE 12.0 15.9----29.78- 77.4-----
2024-05-16 08:42 pmSSE 12.0 15.0----29.78- 77.5-----
2024-05-16 08:36 pmSSE 12.0 15.0----29.78- 77.7-----
2024-05-16 08:30 pm SE 13.0 17.1----29.77- 77.7-----
2024-05-16 08:24 pm SE 12.0 17.1----29.76- 77.4-----
2024-05-16 08:18 pmSSE 15.0 19.0----29.77- 78.1-----
2024-05-16 08:12 pmSSE 14.0 20.0----29.77- 78.1-----
2024-05-16 08:06 pm SE 14.0 18.1----29.76- 77.9-----
2024-05-16 08:00 pm SE 15.9 22.0----29.75-0.05 77.7-----
2024-05-16 07:54 pm SE 14.0 19.0----29.75- 77.7-----